2018-102A (43831 NORAD) Tracking and Keplerian Element Data

This shows tracking and keplerian element data for the satellite.

Feedback or suggestion? Click here.




ElementValue
Catalog43831
Name2018-102A
Epoch Orbit453
Epoch Day6.22905162
Epoch Year2019
RAAN83.4376
Inclination97.6235
Eccentricity0.0014832
Argument of Perigee157.0061
Mean Anonmoly277.573
Mean Motion15.07811151
Decay Rate4.7E-06
L11 43831U 18102A 19006.22905162 .00000470 00000-0 34766-4 0 9995
L22 43831 97.6235 83.4376 0014832 157.0061 277.5730 15.07811151 4535

Live tracking and technical data element details for 2018-102A (NORAD 43831). 2018-102A can be tracked NOW for your location showing map with azimuth and elevation plus other details from your city location.

Track the satellite on the map from your city or location and see movement details for azimuth, elevation, latitude, longitude, range, height, and movement on the map or in text.







IsCatalogInMostPopularTable: catalog: 43831, numindb: 20
Update: records affected: 1



GetName: 43831 2018-102A

Hit Count: updated at: Thu, 17 Jan 2019 15:20:56 GMT